This is the latest recevied weather packets stored in our database for station/object DB0OHA-10. If no packets are shown the sender has not sent any weather packets the latest 10 day(s).
| Time | Temp. | Humidity | Pressure | Rain* | Wind** | Luminosity | Snow |
|---|---|---|---|---|---|---|---|
| 1777468521 | 15.56° C | 33% | 1027.1 hPa | 0 mm | - | 686 W/m² | - |
| 1777467621 | 15° C | 34% | 1027.1 hPa | 0 mm | - | 698 W/m² | - |
| 1777466721 | 14.44° C | 33% | 1027 hPa | 0 mm | - | 717 W/m² | - |
| 1777465821 | 15° C | 32% | 1027.2 hPa | 0 mm | - | 731 W/m² | - |
| 1777464921 | 15° C | 32% | 1027.1 hPa | 0 mm | - | 744 W/m² | - |
| 1777464021 | 15° C | 33% | 1027.1 hPa | 0 mm | - | 751 W/m² | - |
| 1777463121 | 15° C | 35% | 1027.2 hPa | 0 mm | - | 756 W/m² | - |
| 1777462221 | 15° C | 36% | 1027.1 hPa | 0 mm | - | 761 W/m² | - |
| 1777461321 | 13.89° C | 35% | 1027.2 hPa | 0 mm | - | 759 W/m² | - |
| 1777460421 | 13.89° C | 34% | 1027.1 hPa | 0 mm | - | 761 W/m² | - |
| 1777459521 | 13.89° C | 37% | 1027.2 hPa | 0 mm | - | 698 W/m² | - |
| 1777458621 | 13.33° C | 39% | 1027.2 hPa | 0 mm | - | 592 W/m² | - |
| 1777457721 | 13.33° C | 37% | 1027.3 hPa | 0 mm | - | 615 W/m² | - |
| 1777456821 | 13.33° C | 38% | 1027.1 hPa | 0 mm | - | 714 W/m² | - |
| 1777455921 | 12.78° C | 38% | 1026.9 hPa | 0 mm | - | 710 W/m² | - |
| 1777455021 | 12.78° C | 39% | 1027 hPa | 0 mm | - | 696 W/m² | - |
| 1777454121 | 12.78° C | 40% | 1027 hPa | 0 mm | - | 671 W/m² | - |
| 1777453221 | 12.78° C | 41% | 1026.7 hPa | 0 mm | - | 654 W/m² | - |
| 1777452321 | 12.22° C | 41% | 1026.8 hPa | 0 mm | - | 626 W/m² | - |
| 1777451421 | 12.22° C | 44% | 1026.6 hPa | 0 mm | - | 601 W/m² | - |
| 1777450521 | 12.22° C | 43% | 1026.6 hPa | 0 mm | - | 571 W/m² | - |
| 1777449621 | 11.67° C | 45% | 1026.6 hPa | 0 mm | - | 540 W/m² | - |
| 1777448721 | 11.67° C | 43% | 1026.6 hPa | 0 mm | - | 508 W/m² | - |
| 1777447821 | 11.11° C | 45% | 1026.4 hPa | 0 mm | - | 476 W/m² | - |
| 1777446921 | 10.56° C | 46% | 1026.3 hPa | 0 mm | - | 434 W/m² | - |
* Rain latest hour (hover to see other rain measurements)
** Current wind speed in m/s (hover to see current wind gust speed)